Flag for Germany Weather past 2 weeks in Wittmund, Lower Saxony, Germany

Now
43 °F

Passing clouds.


Feels Like: 35 °F
Forecast: 43 / 49 °F
Wind: 15 mph from Northwest

Location: Wittmundhaven

Current Time: Dec 20, 2014 at 10:13:40 PM

Latest Report: Dec 20, 2014 at 9:20 PM


Visibility: N/A

Pressure: 30.04 "Hg

Humidity: 71%

Dew point: 34 °F

Location of WittmundLocation

Historic Weather in Wittmund — Graph

°F

Wittmund temperature yesterday

Maximum temperature yesterday: 54 °F (at 1:20 AM)
Minimum temperature yesterday: 43 °F (at 5:20 PM)
Average temperature yesterday: 48 °F

Past Weeks' High & Low Weather Summary

 TemperatureHumidityPressure
High54 °F (Dec 18, 6:20 PM)100% (Dec 6, 4:20 AM)30.30 "Hg (Dec 6, 4:20 AM)
Low30 °F (Dec 7, 1:20 AM)71% (Dec 10, 2:20 PM)29.15 "Hg (Dec 12, 11:20 AM)
Average40 °F90%29.80 "Hg
* Reported Dec 5 8:20 PM — Dec 20 8:20 PM, Wittmund, Weather by CustomWeather, © 2014

Note: Actual official high and low records may vary slightly from our data, if they occured in-between our weather recording intervals... More about our weather records

Advertising

Wittmund weather history for previous 24 hours

 ConditionsComfort  
Time TempWeatherWind HumidityBarometerVisibility
8:20 PM
Dec 20
43 °FPassing clouds.20 mph76%30.01 "HgN/A
7:20 PM43 °FPassing clouds.16 mph71%29.98 "HgN/A
6:20 PM43 °FPassing clouds.18 mph71%29.95 "HgN/A
5:20 PM39 °FPassing clouds.16 mph87%29.89 "HgN/A
4:49 PM43 °FSprinkles. Partly cloudy.22 mph81%29.89 "Hg5 mi
4:20 PM41 °FSprinkles. Partly cloudy.17 mph87%29.86 "HgN/A
3:20 PM39 °FRain showers. Broken clouds.32 mph81%29.86 "Hg4 mi
2:20 PM45 °FSprinkles. Broken clouds.25 mph81%29.80 "HgN/A
1:20 PM43 °FScattered clouds.22 mph81%29.80 "HgN/A
12:20 PM41 °FSprinkles. Broken clouds.20 mph87%29.80 "Hg3 mi
11:20 AM37 °FSprinkles. Partly sunny.23 mph93%29.83 "Hg4 mi
10:20 AM43 °FRain showers. Partly sunny.30 mph87%29.80 "Hg2 mi
9:49 AM45 °FRain showers. Broken clouds.30 mph81%29.80 "Hg2 mi
9:20 AM45 °FLight rain. Partly sunny.31 mph76%29.80 "HgN/A
8:20 AM45 °FPartly cloudy.29 mph76%29.80 "HgN/A
7:20 AM45 °FPartly cloudy.25 mph76%29.83 "HgN/A
6:20 AM45 °FPassing clouds.31 mph76%29.86 "HgN/A
5:20 AM45 °FPassing clouds.30 mph76%29.86 "HgN/A
4:49 AM45 °FPassing clouds.28 mph76%29.86 "HgN/A
4:20 AM43 °FPassing clouds.25 mph87%29.86 "HgN/A
3:20 AM43 °FSprinkles. Passing clouds.25 mph81%29.86 "HgN/A
2:20 AM43 °FPassing clouds.28 mph81%29.86 "HgN/A
1:20 AM43 °FPassing clouds.23 mph81%29.86 "HgN/A
12:20 AM43 °FPassing clouds.23 mph81%29.86 "HgN/A
11:20 PM
Dec 19
43 °FPassing clouds.22 mph81%29.83 "HgN/A
10:20 PM43 °FPassing clouds.23 mph81%29.83 "HgN/A
Weather by CustomWeather, © 2014

See weather overviewHow to use our weather pages